This is the latest recevied weather packets stored in our database for station/object XE2B-20. If no packets are shown the sender has not sent any weather packets the latest 10 day(s).
| Time | Temp. | Humidity | Pressure | Rain* | Wind** | Luminosity | Snow |
|---|---|---|---|---|---|---|---|
| 1788054882 | 18.33° C | 40% | 808.3 hPa | - | - | - | - |
| 1788053405 | 19.44° C | 40% | 807.5 hPa | - | - | - | - |
| 1788051889 | 22.22° C | 38% | 806.9 hPa | - | - | - | - |
| 1788049565 | 30° C | 30% | 806.3 hPa | - | - | - | - |
| 1788048075 | 31.67° C | 29% | 805.8 hPa | - | - | - | - |
| 1788046570 | 31.11° C | 29% | 805.6 hPa | - | - | - | - |
| 1788045072 | 33.89° C | 28% | 805.5 hPa | - | - | - | - |
| 1788043575 | 35.56° C | 27% | 805.8 hPa | - | - | - | - |
| 1788042078 | 36.67° C | 26% | 806 hPa | - | - | - | - |
| 1788040587 | 37.22° C | 25% | 806.2 hPa | - | - | - | - |
| 1788039079 | 37.22° C | 25% | 806.6 hPa | - | - | - | - |
| 1788037590 | 37.78° C | 25% | 807 hPa | - | - | - | - |
| 1788036186 | 36.67° C | 26% | 807.6 hPa | - | - | - | - |
| 1788036084 | 36.67° C | 26% | 807.6 hPa | - | - | - | - |
| 1788034586 | 37.22° C | 26% | 808.1 hPa | - | - | - | - |
| 1788033088 | 37.22° C | 26% | 808.7 hPa | - | - | - | - |
| 1788031590 | 35.56° C | 27% | 808.9 hPa | - | - | - | - |
| 1788030093 | 35° C | 28% | 809.3 hPa | - | - | - | - |
| 1788028596 | 35° C | 28% | 809.6 hPa | - | - | - | - |
| 1788027093 | 33.89° C | 29% | 810 hPa | - | - | - | - |
| 1788025595 | 33.33° C | 29% | 810.4 hPa | - | - | - | - |
| 1788024094 | 31.67° C | 31% | 810.5 hPa | - | - | - | - |
| 1788022596 | 32.22° C | 30% | 810.6 hPa | - | - | - | - |
| 1788021104 | 32.22° C | 29% | 810.7 hPa | - | - | - | - |
| 1788019604 | 31.67° C | 30% | 810.8 hPa | - | - | - | - |
* Rain since midnight (hover to see other rain measurements)
** Current wind speed in m/s (hover to see current wind gust speed)